EW3429 Weather Reports


Display with metric or nautical units.
time (UTC)temp
F
wind
direction
speed
MPH
gust
MPH
rain 1hr
in
rain 24hr
in
rain mn
in
humidity
%
barometer
mb
20190123220955 29 355 1.0 2.0 0.00 0.09 0.09 89 1002.1
20190123220452 29 355 1.0 2.0 0.00 0.09 0.09 89 1002.1
20190123215947 29 355 1.0 2.0 0.00 0.09 0.09 89 1002.1
20190123215444 29 355 2.0 2.0 0.00 0.09 0.09 89 1002.2
20190123214940 29 40 0.0 2.0 0.00 0.09 0.09 89 1002.1
20190123214436 29 355 0.0 2.0 0.00 0.09 0.09 89 1002.2
20190123213932 29 355 0.0 2.0 0.00 0.09 0.09 89 1002.2
20190123213429 29 310 1.0 3.0 0.00 0.09 0.09 89 1002.1
20190123212925 29 310 1.0 3.0 0.00 0.09 0.09 89 1002.2
20190123212422 29 310 2.0 4.0 0.00 0.09 0.09 89 1002.2
20190123211917 29 310 0.0 4.0 0.00 0.09 0.09 89 1002.1
20190123211413 29 355 4.0 4.0 0.00 0.09 0.09 89 1002.3
20190123210910 29 333 2.0 4.0 0.00 0.09 0.09 89 1002.2
20190123210406 29 265 2.0 3.0 0.00 0.09 0.09 89 1002.2
20190123205903 29 310 2.0 3.0 0.00 0.09 0.09 89 1002.2
20190123205358 29 355 2.0 2.0 0.00 0.09 0.09 89 1002.5
20190123204855 29 355 0.0 2.0 0.00 0.09 0.09 89 1002.7
20190123204351 29 355 0.0 2.0 0.00 0.09 0.09 89 1002.7
20190123203847 29 310 1.0 2.0 0.00 0.09 0.09 89 1002.7
20190123203343 29 355 0.0 1.0 0.00 0.09 0.09 89 1002.7
20190123202839 29 85 0.0 0.0 0.00 0.09 0.09 89 1002.8
20190123202336 29 85 0.0 2.0 0.00 0.09 0.09 89 1002.6
20190123201832 29 85 0.0 2.0 0.00 0.09 0.09 89 1002.6
20190123201328 29 40 0.0 2.0 0.00 0.09 0.09 89 1002.5
20190123200824 29 40 0.0 2.0 0.00 0.09 0.09 89 1002.6
20190123200320 29 355 1.0 2.0 0.00 0.09 0.09 89 1002.5
20190123195817 29 40 0.0 3.0 0.00 0.09 0.09 89 1002.6
20190123195313 29 40 0.0 3.0 0.00 0.09 0.09 89 1002.5
20190123194809 29 355 2.0 3.0 0.00 0.09 0.09 89 1002.2
20190123194305 29 355 0.0 3.0 0.00 0.09 0.09 89 1002.1
20190123193802 29 310 1.0 4.0 0.00 0.09 0.09 89 1002.2
20190123193259 29 355 2.0 4.0 0.00 0.09 0.09 89 1002.2
20190123192754 29 85 1.0 4.0 0.00 0.09 0.09 89 1002.2
20190123192251 29 85 1.0 3.0 0.00 0.09 0.09 89 1002.4
20190123191747 29 85 1.0 3.0 0.00 0.09 0.09 89 1002.1
20190123191243 29 40 2.0 5.0 0.00 0.09 0.09 89 1002.1
20190123190739 29 85 1.0 5.0 0.00 0.09 0.09 89 1002.0
20190123190235 29 355 3.0 4.0 0.00 0.09 0.09 89 1002.2
20190123185734 29 355 2.0 3.0 0.00 0.09 0.09 89 1002.2
20190123185227 29 40 0.0 3.0 0.00 0.09 0.09 89 1002.4
20190123184724 29 265 1.0 3.0 0.00 0.09 0.09 89 1002.1
20190123184220 29 85 1.0 3.0 0.00 0.09 0.09 89 1002.2
20190123183716 29 40 2.0 3.0 0.00 0.09 0.09 89 1002.0
20190123183212 29 355 2.0 3.0 0.00 0.09 0.09 89 1001.9
20190123182709 29 310 2.0 2.0 0.00 0.09 0.09 89 1002.1
20190123182205 29 355 0.0 2.0 0.00 0.09 0.09 89 1002.2
20190123181701 29 85 0.0 2.0 0.00 0.09 0.09 89 1002.4
20190123181157 29 40 0.0 3.0 0.00 0.09 0.09 89 1002.4
20190123180654 29 310 0.0 3.0 0.00 0.09 0.09 89 1002.3
20190123180150 29 355 2.0 3.0 0.00 0.09 0.09 89 1002.2
20190123175646 29 85 2.0 5.0 0.00 0.09 0.09 89 1002.1
20190123175142 29 40 0.0 5.0 0.00 0.09 0.09 89 1002.2
20190123174639 29 355 3.0 4.0 0.00 0.09 0.09 89 1002.2
20190123174135 29 355 1.0 4.0 0.00 0.09 0.09 89 1002.3
20190123173631 29 355 0.0 4.0 0.00 0.09 0.09 89 1002.3
20190123173127 29 355 2.0 4.0 0.00 0.09 0.09 88 1002.2
20190123172623 29 310 2.0 4.0 0.00 0.09 0.09 88 1002.4
20190123172122 29 40 1.0 4.0 0.00 0.09 0.09 88 1002.2
20190123171615 29 310 0.0 4.0 0.00 0.09 0.09 88 1002.4
20190123171112 29 40 2.0 4.0 0.00 0.09 0.09 88 1002.5
20190123170608 29 310 1.0 3.0 0.00 0.09 0.09 88 1002.4
20190123170104 29 40 2.0 3.0 0.00 0.09 0.09 88 1002.3
20190123165601 29 355 0.0 3.0 0.00 0.09 0.09 87 1002.3
20190123165057 29 40 0.0 3.0 0.00 0.09 0.09 87 1002.5
20190123164553 29 355 2.0 4.0 0.00 0.09 0.09 87 1002.4
20190123164049 29 355 1.0 4.0 0.00 0.09 0.09 87 1002.4
20190123163547 29 355 2.0 4.0 0.00 0.09 0.09 87 1002.2
20190123163041 29 85 0.0 4.0 0.00 0.09 0.09 87 1002.1
20190123162538 29 355 2.0 4.0 0.00 0.09 0.09 87 1002.1
20190123162034 29 355 1.0 3.0 0.00 0.09 0.09 87 1002.2
20190123161530 29 355 1.0 2.0 0.00 0.09 0.09 86 1002.2
20190123161026 29 355 1.0 3.0 0.00 0.09 0.09 86 1002.0
20190123160526 29 18 0.0 3.0 0.00 0.09 0.09 86 1002.1
20190123160019 29 85 0.0 3.0 0.00 0.09 0.09 86 1002.1
20190123155516 29 355 1.0 3.0 0.00 0.09 0.09 86 1002.0
20190123155012 29 310 2.0 2.0 0.00 0.09 0.09 86 1002.0
20190123154508 29 355 1.0 3.0 0.00 0.09 0.09 85 1002.1
20190123154004 29 310 2.0 3.0 0.00 0.09 0.09 85 1002.0
20190123153501 29 310 1.0 3.0 0.00 0.09 0.09 85 1002.0
20190123152956 29 355 0.0 3.0 0.00 0.09 0.09 84 1002.1
20190123152453 29 355 1.0 2.0 0.00 0.09 0.09 84 1002.4
20190123151949 29 355 0.0 2.0 0.00 0.09 0.09 84 1002.4
20190123151446 29 40 1.0 3.0 0.00 0.09 0.09 84 1002.4
20190123150941 29 355 1.0 3.0 0.00 0.09 0.09 84 1002.5
20190123150440 29 355 1.0 2.0 0.00 0.09 0.09 83 1002.2
20190123145938 29 355 1.0 4.0 0.00 0.09 0.09 83 1002.4
20190123145435 29 40 0.0 4.0 0.00 0.09 0.09 83 1002.5
20190123144931 29 355 2.0 3.0 0.00 0.09 0.09 83 1002.4
20190123144428 29 85 0.0 3.0 0.00 0.09 0.09 83 1002.4
20190123143924 29 40 2.0 4.0 0.00 0.09 0.09 83 1002.4
20190123143420 29 355 1.0 4.0 0.00 0.09 0.09 83 1002.5
20190123142917 29 310 3.0 4.0 0.00 0.09 0.09 83 1002.3
20190123142413 29 40 0.0 2.0 0.00 0.09 0.09 83 1002.5
20190123141908 29 85 1.0 2.0 0.00 0.09 0.09 83 1002.5
20190123141406 29 85 0.0 3.0 0.00 0.09 0.09 83 1002.4
20190123140901 29 85 0.0 3.0 0.00 0.09 0.09 83 1002.4
20190123140358 29 85 1.0 3.0 0.00 0.09 0.09 83 1002.5
20190123135854 29 85 1.0 4.0 0.00 0.09 0.09 83 1002.4
20190123135349 29 355 1.0 4.0 0.00 0.09 0.09 83 1002.4
20190123134845 29 355 2.0 4.0 0.00 0.09 0.09 83 1002.4
20190123134344 29 85 0.0 4.0 0.00 0.09 0.09 83 1002.4
20190123133838 29 355 3.0 4.0 0.00 0.09 0.09 83 1002.3
20190123133334 29 355 0.0 4.0 0.00 0.09 0.09 83 1002.2
20190123132830 29 355 1.0 4.0 0.00 0.09 0.09 83 1002.1
20190123132327 29 355 2.0 4.0 0.00 0.09 0.09 83 1002.2
20190123131823 29 310 3.0 4.0 0.00 0.09 0.09 83 1002.2
20190123131319 29 85 0.0 6.0 0.00 0.09 0.09 83 1002.2
20190123130817 29 40 1.0 6.0 0.00 0.09 0.09 82 1002.1
20190123130311 29 355 4.0 4.0 0.00 0.09 0.09 82 1002.2
20190123125809 29 355 3.0 4.0 0.00 0.09 0.09 83 1002.2
20190123125304 29 85 2.0 5.0 0.00 0.09 0.09 83 1002.2
20190123124802 29 333 3.0 5.0 0.00 0.09 0.09 83 1002.3
20190123124256 29 355 3.0 5.0 0.00 0.09 0.09 83 1002.1
20190123123753 29 265 2.0 6.0 0.00 0.09 0.09 83 1002.2
20190123123249 29 355 3.0 6.0 0.00 0.09 0.09 83 1002.2
20190123122746 29 355 4.0 5.0 0.00 0.09 0.09 83 1002.3
20190123122241 29 355 0.0 4.0 0.00 0.09 0.09 83 1002.3
20190123121739 29 355 3.0 4.0 0.00 0.09 0.09 83 1002.3
20190123121240 29 310 2.0 4.0 0.00 0.09 0.09 83 1002.4
20190123120735 29 355 2.0 4.0 0.01 0.09 0.09 83 1002.4
20190123120232 29 355 1.0 3.0 0.01 0.09 0.09 83 1002.4
20190123115727 29 85 2.0 4.0 0.01 0.09 0.09 83 1002.5
20190123115225 29 40 2.0 4.0 0.00 0.08 0.08 83 1002.5
20190123114720 29 85 2.0 4.0 0.01 0.08 0.08 83 1002.5
20190123114217 29 85 1.0 4.0 0.01 0.08 0.08 83 1002.4
20190123113713 29 40 0.0 4.0 0.01 0.08 0.08 83 1002.5
20190123113210 29 40 0.0 4.0 0.01 0.08 0.08 83 1002.4
20190123112704 29 355 2.0 4.0 0.01 0.08 0.08 83 1002.7
20190123112202 29 355 2.0 3.0 0.01 0.08 0.08 83 1002.7
20190123111658 29 40 1.0 3.0 0.02 0.08 0.08 83 1002.7
20190123111155 29 355 1.0 3.0 0.02 0.08 0.08 83 1002.7
20190123110655 29 40 1.0 2.0 0.01 0.08 0.08 83 1002.7
20190123110151 29 85 0.0 3.0 0.01 0.08 0.08 84 1002.8
20190123105647 29 40 0.0 3.0 0.01 0.08 0.08 84 1002.9
20190123105143 29 85 1.0 3.0 0.01 0.08 0.08 84 1003.0
20190123104639 29 85 0.0 4.0 0.01 0.07 0.07 84 1003.1
20190123104136 29 85 1.0 4.0 0.01 0.07 0.07 84 1002.9
20190123103632 29 40 0.0 3.0 0.01 0.07 0.07 84 1003.1
20190123103128 29 85 0.0 3.0 0.02 0.07 0.07 84 1002.9
20190123102625 29 355 1.0 3.0 0.01 0.07 0.07 84 1003.1
20190123102121 30 40 2.0 3.0 0.01 0.07 0.07 85 1002.9
20190123101617 29 85 1.0 4.0 0.01 0.07 0.07 85 1003.0
20190123101113 29 355 2.0 4.0 0.02 0.07 0.07 85 1003.1
20190123100609 29 355 1.0 3.0 0.02 0.07 0.07 85 1003.0
20190123100106 29 355 2.0 3.0 0.02 0.07 0.07 85 1003.0
20190123095602 29 355 2.0 3.0 0.02 0.07 0.07 85 1003.2
20190123095058 29 40 2.0 3.0 0.02 0.07 0.07 85 1003.2
20190123094554 29 85 1.0 2.0 0.03 0.07 0.07 86 1003.3
20190123094051 29 40 0.0 2.0 0.02 0.06 0.06 86 1003.3
20190123093546 29 85 0.0 2.0 0.02 0.06 0.06 86 1003.2
20190123093042 29 40 1.0 4.0 0.02 0.06 0.06 86 1003.2
20190123092539 29 355 2.0 4.0 0.02 0.06 0.06 86 1003.1
20190123092035 29 355 1.0 4.0 0.02 0.06 0.06 86 1003.5
20190123091532 29 85 0.0 2.0 0.02 0.06 0.06 86 1003.4
20190123091031 29 85 1.0 3.0 0.02 0.05 0.05 86 1003.3
20190123090529 29 355 2.0 4.0 0.02 0.05 0.05 86 1003.3
20190123090025 29 355 2.0 4.0 0.02 0.05 0.05 86 1003.3
20190123085521 29 40 2.0 4.0 0.02 0.04 0.05 87 1003.3
20190123085018 29 355 0.0 2.0 0.02 0.04 0.04 87 1003.2
20190123084513 28 310 1.0 2.0 0.02 0.04 0.04 86 1003.2
20190123084009 28 355 0.0 2.0 0.02 0.04 0.04 86 1003.3
20190123083506 28 355 0.0 4.0 0.02 0.04 0.04 86 1003.3
20190123083003 28 85 0.0 4.0 0.02 0.04 0.04 86 1003.3
20190123082458 28 333 2.0 4.0 0.02 0.04 0.04 86 1003.3
20190123081954 28 310 2.0 4.0 0.02 0.04 0.04 86 1003.3
20190123081451 28 355 0.0 2.0 0.03 0.04 0.04 86 1003.2
20190123080947 28 40 2.0 2.0 0.02 0.03 0.03 86 1003.3
20190123080443 28 40 1.0 2.0 0.03 0.03 0.03 86 1003.5
20190123075939 28 40 1.0 2.0 0.03 0.03 0.03 86 1003.3
20190123075436 28 40 0.0 3.0 0.02 0.02 0.02 86 1003.2
20190123074932 27 355 0.0 3.0 0.02 0.02 0.02 86 1003.4
20190123074429 27 355 2.0 2.0 0.02 0.02 0.02 86 1003.2
20190123073924 27 355 1.0 2.0 0.02 0.02 0.02 86 1003.3
20190123073423 27 40 0.0 1.0 0.02 0.02 0.02 86 1003.2
20190123072923 27 40 0.0 1.0 0.02 0.02 0.02 86 1003.2
20190123072419 27 40 0.0 1.0 0.01 0.01 0.02 86 1003.1
20190123071915 27 355 0.0 1.0 0.01 0.01 0.01 86 1003.2
20190123071412 27 85 0.0 2.0 0.01 0.01 0.01 86 1003.1
20190123070908 27 40 0.0 2.0 0.00 0.00 0.01 86 1003.0
20190123070404 27 40 0.0 1.0 0.00 0.00 0.00 85 1003.1
20190123065901 27 40 0.0 1.0 0.00 0.00 0.00 85 1003.0
20190123065356 27 40 0.0 0.0 0.00 0.00 0.00 85 1003.0
20190123064853 27 85 0.0 0.0 0.00 0.00 0.00 85 1003.1
20190123064348 27 40 0.0 0.0 0.00 0.00 0.00 85 1003.1
20190123063845 27 85 0.0 0.0 0.00 0.00 0.00 85 1002.9
20190123063341 27 310 0.0 0.0 0.00 0.00 0.00 85 1003.0
20190123062837 27 85 0.0 0.0 0.00 0.00 0.00 85 1002.9
20190123062457 27 85 0.0 2.0 0.00 0.00 0.00 85 1002.9
20190123061953 26 355 0.0 2.0 0.00 0.00 0.00 84 1002.8
20190123061449 26 355 0.0 2.0 0.00 0.00 0.00 84 1002.9
20190123060945 26 355 0.0 2.0 0.00 0.00 0.00 84 1002.9
20190123060441 26 355 1.0 2.0 0.00 0.00 0.00 84 1002.9
20190123055938 26 355 1.0 3.0 0.00 0.00 0.00 84 1003.0
20190123055434 26 333 2.0 3.0 0.00 0.00 0.00 84 1002.9
20190123054931 26 355 1.0 4.0 0.00 0.00 0.00 83 1002.9
20190123054426 26 355 1.0 4.0 0.00 0.00 0.00 83 1003.1
20190123053923 26 333 2.0 2.0 0.00 0.00 0.00 83 1003.0
20190123053419 26 310 1.0 2.0 0.00 0.00 0.00 83 1003.2
20190123052916 26 355 2.0 2.0 0.00 0.00 0.00 82 1003.1
20190123052411 27 355 1.0 2.0 0.00 0.00 0.00 82 1003.0
20190123051910 27 40 0.0 3.0 0.00 0.00 0.00 82 1003.0
20190123051409 27 40 0.0 3.0 0.00 0.00 0.00 82 1003.1
20190123050905 27 355 0.0 2.0 0.00 0.00 0.00 81 1003.1
20190123050401 27 355 1.0 3.0 0.00 0.00 0.00 81 1002.9
20190123045909 27 355 0.0 3.0 0.00 0.00 0.00 81 1002.9
20190123045354 27 355 2.0 3.0 0.00 0.00 0.00 80 1003.0
20190123044850 27 310 2.0 3.0 0.00 0.00 0.00 80 1002.9
20190123044346 27 310 1.0 2.0 0.00 0.00 0.00 80 1003.1
20190123043842 27 355 2.0 3.0 0.00 0.00 0.00 80 1003.0
20190123043338 27 355 1.0 3.0 0.00 0.00 0.00 80 1002.9
20190123042835 27 310 2.0 3.0 0.00 0.00 0.00 79 1002.9
20190123042331 27 40 1.0 3.0 0.00 0.00 0.00 79 1003.0
20190123041827 27 40 0.0 3.0 0.00 0.00 0.00 79 1002.9
20190123041324 27 265 2.0 2.0 0.00 0.00 0.00 79 1003.0
20190123040820 27 355 2.0 2.0 0.00 0.00 0.00 79 1003.1
20190123040316 27 40 0.0 4.0 0.00 0.00 0.00 79 1003.2
20190123035812 27 355 1.0 4.0 0.00 0.00 0.00 79 1003.1
20190123035308 27 310 2.0 4.0 0.00 0.00 0.00 79 1003.2
20190123034804 27 310 2.0 4.0 0.00 0.00 0.00 79 1003.4
20190123034300 27 355 2.0 4.0 0.00 0.00 0.00 79 1003.3
20190123033756 27 40 1.0 3.0 0.00 0.00 0.00 79 1003.3
20190123033253 27 355 2.0 3.0 0.00 0.00 0.00 80 1003.5
20190123032749 27 288 1.0 3.0 0.00 0.00 0.00 80 1003.6
20190123032245 26 40 0.0 4.0 0.00 0.00 0.00 80 1003.6
20190123031741 26 355 1.0 4.0 0.00 0.00 0.00 80 1003.5
20190123031238 26 333 1.0 2.0 0.00 0.00 0.00 80 1003.6
20190123030734 26 40 0.0 0.0 0.00 0.00 0.00 80 1003.5
20190123030231 26 40 0.0 0.0 0.00 0.00 0.00 80 1003.6
20190123025726 26 40 0.0 0.0 0.00 0.00 0.00 80 1003.6
20190123025223 26 85 0.0 0.0 0.00 0.00 0.00 80 1003.7
20190123024720 26 85 0.0 0.0 0.00 0.00 0.00 80 1003.7
20190123024217 26 85 0.0 2.0 0.00 0.00 0.00 80 1003.7
20190123023711 26 310 0.0 4.0 0.00 0.00 0.00 80 1003.7
20190123023208 26 40 1.0 4.0 0.00 0.00 0.00 80 1003.8
20190123022704 26 265 2.0 3.0 0.00 0.00 0.00 80 1003.9
20190123022200 26 40 0.0 2.0 0.00 0.00 0.00 80 1004.0
20190123021657 26 355 0.0 4.0 0.00 0.00 0.00 79 1004.0
20190123021153 26 40 0.0 4.0 0.00 0.00 0.00 79 1004.2
20190123020649 26 310 2.0 3.0 0.00 0.00 0.00 79 1004.1
20190123020146 25 355 1.0 3.0 0.00 0.00 0.00 79 1004.3
20190123015641 25 40 1.0 4.0 0.00 0.00 0.00 79 1004.6
20190123015137 25 310 2.0 4.0 0.00 0.00 0.00 80 1004.7
20190123014634 25 355 2.0 4.0 0.00 0.00 0.00 80 1004.7
20190123014130 25 355 1.0 4.0 0.00 0.00 0.00 80 1004.7
20190123013626 25 310 2.0 3.0 0.00 0.00 0.00 80 1004.8
20190123013123 25 355 0.0 3.0 0.00 0.00 0.00 80 1004.9
20190123012618 25 355 2.0 3.0 0.00 0.00 0.00 81 1005.0
20190123012115 25 355 2.0 3.0 0.00 0.00 0.00 81 1005.0
20190123011612 24 265 2.0 2.0 0.00 0.00 0.00 81 1005.1
20190123011109 24 40 0.0 1.0 0.00 0.00 0.00 81 1005.3
20190123010604 24 130 1.0 1.0 0.00 0.00 0.00 81 1005.3
20190123010100 24 130 1.0 1.0 0.00 0.00 0.00 81 1005.3
20190123005556 24 85 0.0 1.0 0.00 0.00 0.00 81 1005.3
20190123005052 24 355 0.0 2.0 0.00 0.00 0.00 81 1005.3
20190123004548 24 85 0.0 2.0 0.00 0.00 0.00 82 1005.3
20190123004044 24 310 2.0 2.0 0.00 0.00 0.00 82 1005.3
20190123003540 24 85 0.0 2.0 0.00 0.00 0.00 82 1005.4
20190123003059 24 288 1.0 7.0 0.00 0.00 0.00 82 1005.6
20190123002536 24 355 2.0 7.0 0.00 0.00 0.00 83 1005.6
20190123001921 23 310 2.0 4.0 0.00 0.00 0.00 85 1005.7
20190123000518 22 355 0.0 4.0 0.00 0.00 0.00 86 1005.9
20190123000014 22 355 0.0 4.0 0.00 0.00 0.00 86 1006.0
20190122235510 22 310 3.0 4.0 0.00 0.00 0.00 85 1006.1
20190122235007 21 310 0.0 3.0 0.00 0.00 0.00 85 1006.1
20190122234503 21 40 0.0 3.0 0.00 0.00 0.00 85 1006.2
20190122233959 20 310 2.0 2.0 0.00 0.00 0.00 84 1006.4
20190122233455 20 355 2.0 2.0 0.00 0.00 0.00 84 1006.4
20190122232951 20 355 0.0 2.0 0.00 0.00 0.00 84 1006.5
20190122232447 19 310 2.0 2.0 0.00 0.00 0.00 84 1006.6
20190122231944 19 310 2.0 2.0 0.00 0.00 0.00 83 1006.5
20190122231440 19 310 1.0 2.0 0.00 0.00 0.00 83 1006.7
20190122230937 19 355 0.0 0.0 0.00 0.00 0.00 83 1007.1
20190122230432 19 355 0.0 0.0 0.00 0.00 0.00 83 1007.0
20190122225929 19 355 0.0 2.0 0.00 0.00 0.00 83 1006.9
20190122225424 20 355 0.0 2.0 0.00 0.00 0.00 83 1007.1
20190122224922 19 310 1.0 2.0 0.00 0.00 0.00 83 1007.3
20190122224417 19 310 0.0 2.0 0.00 0.00 0.00 83 1007.1
20190122223914 19 220 0.0 2.0 0.00 0.00 0.00 83 1007.2
20190122223409 19 85 0.0 2.0 0.00 0.00 0.00 82 1007.3
20190122222906 19 265 0.0 0.0 0.00 0.00 0.00 82 1007.3
20190122222403 19 85 0.0 0.0 0.00 0.00 0.00 82 1007.4
20190122221859 19 85 0.0 0.0 0.00 0.00 0.00 82 1007.3